[Iaude] MPEC P73: 2020 PV1 [a=2.16,e=0.47,i=4.1,H=24.5]

mpec at marsden.cfa.harvard.edu mpec at marsden.cfa.harvard.edu
Thu Aug 13 12:31:56 EDT 2020


M.P.E.C. 2020-P73                               Issued 2020 August 13, 16:30 UT

     The Minor Planet Electronic Circulars contain information on unusual
         minor planets and routine data on comets.  They are published
    on behalf of Division F of the International Astronomical Union by the
          Minor Planet Center, Smithsonian Astrophysical Observatory,
                          Cambridge, MA 02138, U.S.A.

             Prepared using the Tamkin Foundation Computer Network

                              MPC at CFA.HARVARD.EDU
            URL https://www.minorplanetcenter.net/    ISSN 1523-6714

                                    2020 PV1                                    


Observations:
     K20P01V* C2020 08 11.36958020 51 35.288+03 39 41.26         20.87wUEP073F52
     K20P01V  C2020 08 11.38145820 51 38.005+03 39 40.60         21.61wUEP073F52
     K20P01V  C2020 08 11.39339020 51 40.738+03 39 39.96         21.23wUEP073F52
     K20P01V  C2020 08 11.89362 20 53 48.95 +03 38 42.5          21.9 VVEP073033
     K20P01V  C2020 08 11.89721 20 53 49.78 +03 38 41.7          22.5 VVEP073033
     K20P01V  C2020 08 11.90080 20 53 50.64 +03 38 41.5          22.0 VVEP073033
     K20P01V  C2020 08 12.90295 20 58 11.04 +03 37 05.0          21.5 VVEP073033
     K20P01V  C2020 08 12.90654 20 58 11.94 +03 37 04.5          21.9 VVEP073033
     K20P01V  C2020 08 12.91013 20 58 12.84 +03 37 04.1          21.4 VVEP073033
     K20P01V  C2020 08 13.31582521 00 01.609+03 36 38.79         21.35wUEP073F51
     K20P01V  C2020 08 13.34442821 00 08.565+03 36 35.11         21.52wUEP073F51
     K20P01V  C2020 08 13.35876421 00 12.051+03 36 33.33         21.33wUEP073F51

Observer details:
033 Karl Schwarzschild Observatory, Tautenburg.  Observers S. Melnikov, U.
    Laux, B. Stecklum.  Measurer B. Stecklum.  1.34-m f/3 Schmidt + CCD.
F51 Pan-STARRS 1, Haleakala.  Observers J. Bulger, T. Lowe, A. Schultz, M.
    Willman.  Measurers K. Chambers, S. Chastel, T. de Boer, L. Denneau, J.
    Fairlamb, H. Flewelling, M. Huber, C.-C. Lin, E. Magnier, Y. Ramanjooloo,
    R. Wainscoat, R. Weryk.  1.8-m Ritchey-Chretien + CCD.
F52 Pan-STARRS 2, Haleakala.  Observers J. Bulger, T. Dukes, T. Lowe, A.
    Schultz, M. Willman.  Measurers K. Chambers, S. Chastel, T. de Boer, L.
    Denneau, J. Fairlamb, H. Flewelling, M. Huber, C.-C. Lin, E. Magnier, Y.
    Ramanjooloo, R. Wainscoat, R. Weryk.  1.8-m Ritchey-Chretien + CCD.

Orbital elements:
2020 PV1                                                 Earth MOID = 0.1307 AU
Epoch 2020 May 31.0 TT = JDT 2459000.5                  Pike
M 334.10962              (2000.0)            P               Q
n   0.31032520     Peri.  154.92577     +0.86077116     +0.50894473
a   2.1606845      Node   174.46556     -0.47829411     +0.81345009
e   0.4736170      Incl.    4.13102     -0.17409122     +0.28155677
P   3.18           H   24.5           G   0.15           U   7
Residuals in seconds of arc
200811 F52  0.1+  0.2+    200811 033  0.0   0.2-    200812 033  0.1+  0.1-
200811 F52  0.1-  0.0     200811 033  0.1-  0.1-    200813 F51  0.1-  0.0
200811 F52  0.1-  0.1-    200812 033  0.4-  0.0     200813 F51  0.1-  0.0
200811 033  0.5+  0.4+    200812 033  0.1-  0.1-    200813 F51  0.2+  0.1+

Ephemeris:
2020 PV1                 a,e,i = 2.16, 0.47, 4                   q = 1.1373
Date    TT    R. A. (2000) Decl.     Delta      r    Elong.  Phase     V
2020 07 14    19 33 16.3 -00 02 59   0.2126  1.2167   158.4    17.9    22.5
...
2020 07 29    20 04 42.4 +02 46 18   0.1646  1.1689   157.3    19.6    21.9
...
2020 08 06    20 30 22.0 +03 32 58   0.1469  1.1518   158.0    19.2    21.6
...
2020 08 12    20 54 15.2 +03 39 21   0.1375  1.1432   159.6    18.0    21.4
2020 08 13    20 58 35.6 +03 37 40   0.1362  1.1421   160.0    17.7    21.4
2020 08 14    21 03 01.6 +03 35 11   0.1351  1.1412   160.4    17.4    21.4
...
2020 08 20    21 31 15.1 +03 03 06   0.1307  1.1376   163.2    14.9    21.2
...
2020 08 28    22 11 02.0 +01 41 05   0.1314  1.1390   167.9    10.7    21.1
...
2020 09 12    23 17 20.7 -01 37 07   0.1535  1.1598   177.3     2.4    21.0

M. P. C. Staff               (C) Copyright 2020 MPC           M.P.E.C. 2020-P73




More information about the Iaude mailing list